<?xml version="1.0" encoding="UTF-8" standalone="no" ?>
<gpx xmlns="http://www.topografix.com/GPX/1/1" xmlns:xsi="http://www.w3.org/2001/XMLSchema-instance" xsi:schemaLocation="http://www.topografix.com/GPX/1/1 http://www.topografix.com/GPX/1/1/gpx.xsd" version="1.1" creator="VisuGPX - https://www.visugpx.com">
  <metadata>
    <name>Un bivouac sur la Jalouvre</name>
    <desc><![CDATA[Préparation de trace pour un bivouac au sommet du Jallouvre... En principe la trace GPS sera en ligne fin septembre. Je pense à une nuit au pied (à proximité du col de la Colombière)... pour une montée de bon heure... ]]></desc>
  </metadata>
  <trk>
    <name><![CDATA[20180830104622-q8hTq]]></name>
    <trkseg>
      <trkpt lat="45.98283" lon="6.46539">
        <ele>1456</ele>
        <time>2018-08-25T10:21:11Z</time>
      </trkpt>
      <trkpt lat="45.98285" lon="6.46501">
        <ele>1451</ele>
        <time>2018-08-25T10:21:11Z</time>
      </trkpt>
      <trkpt lat="45.98295" lon="6.46466">
        <ele>1435</ele>
        <time>2018-08-25T10:21:11Z</time>
      </trkpt>
      <trkpt lat="45.98307" lon="6.46431">
        <ele>1432</ele>
        <time>2018-08-25T10:21:11Z</time>
      </trkpt>
      <trkpt lat="45.98246" lon="6.46453">
        <ele>1423</ele>
        <time>2018-08-25T10:21:11Z</time>
      </trkpt>
      <trkpt lat="45.9828" lon="6.46393">
        <ele>1417</ele>
        <time>2018-08-25T10:21:11Z</time>
      </trkpt>
      <trkpt lat="45.98317" lon="6.46351">
        <ele>1417</ele>
        <time>2018-08-25T10:21:11Z</time>
      </trkpt>
      <trkpt lat="45.98343" lon="6.46327">
        <ele>1417</ele>
        <time>2018-08-25T10:21:11Z</time>
      </trkpt>
      <trkpt lat="45.98341" lon="6.46317">
        <ele>1417</ele>
        <time>2018-08-25T10:21:11Z</time>
      </trkpt>
      <trkpt lat="45.98348" lon="6.46307">
        <ele>1417</ele>
        <time>2018-08-25T10:21:11Z</time>
      </trkpt>
      <trkpt lat="45.9826" lon="6.46299">
        <ele>1403</ele>
        <time>2018-08-25T10:21:11Z</time>
      </trkpt>
      <trkpt lat="45.98303" lon="6.46247">
        <ele>1404</ele>
        <time>2018-08-25T10:21:11Z</time>
      </trkpt>
      <trkpt lat="45.98327" lon="6.46238">
        <ele>1406</ele>
        <time>2018-08-25T10:21:11Z</time>
      </trkpt>
      <trkpt lat="45.98341" lon="6.46187">
        <ele>1416</ele>
        <time>2018-08-25T10:21:11Z</time>
      </trkpt>
      <trkpt lat="45.98339" lon="6.46064">
        <ele>1430</ele>
        <time>2018-08-25T10:21:11Z</time>
      </trkpt>
      <trkpt lat="45.98345" lon="6.4599">
        <ele>1444</ele>
        <time>2018-08-25T10:21:11Z</time>
      </trkpt>
      <trkpt lat="45.98361" lon="6.45935">
        <ele>1449</ele>
        <time>2018-08-25T10:21:11Z</time>
      </trkpt>
      <trkpt lat="45.98354" lon="6.45786">
        <ele>1477</ele>
        <time>2018-08-25T10:21:11Z</time>
      </trkpt>
      <trkpt lat="45.98357" lon="6.45715">
        <ele>1491</ele>
        <time>2018-08-25T10:21:11Z</time>
      </trkpt>
      <trkpt lat="45.98334" lon="6.45713">
        <ele>1490</ele>
        <time>2018-08-25T10:21:11Z</time>
      </trkpt>
      <trkpt lat="45.98325" lon="6.4568">
        <ele>1488</ele>
        <time>2018-08-25T10:21:11Z</time>
      </trkpt>
      <trkpt lat="45.9831" lon="6.45616">
        <ele>1495</ele>
        <time>2018-08-25T10:21:11Z</time>
      </trkpt>
      <trkpt lat="45.98316" lon="6.45549">
        <ele>1503</ele>
        <time>2018-08-25T10:21:11Z</time>
      </trkpt>
      <trkpt lat="45.98299" lon="6.45458">
        <ele>1509</ele>
        <time>2018-08-25T10:21:11Z</time>
      </trkpt>
      <trkpt lat="45.98303" lon="6.45377">
        <ele>1519</ele>
        <time>2018-08-25T10:21:11Z</time>
      </trkpt>
      <trkpt lat="45.98297" lon="6.4534">
        <ele>1521</ele>
        <time>2018-08-25T10:21:11Z</time>
      </trkpt>
      <trkpt lat="45.9827" lon="6.45285">
        <ele>1527</ele>
        <time>2018-08-25T10:21:11Z</time>
      </trkpt>
      <trkpt lat="45.98224" lon="6.4519">
        <ele>1528</ele>
        <time>2018-08-25T10:21:11Z</time>
      </trkpt>
      <trkpt lat="45.98185" lon="6.4512">
        <ele>1537</ele>
        <time>2018-08-25T10:21:11Z</time>
      </trkpt>
      <trkpt lat="45.98163" lon="6.45007">
        <ele>1546</ele>
        <time>2018-08-25T10:21:11Z</time>
      </trkpt>
      <trkpt lat="45.98142" lon="6.44953">
        <ele>1550</ele>
        <time>2018-08-25T10:21:11Z</time>
      </trkpt>
      <trkpt lat="45.9814" lon="6.44918">
        <ele>1554</ele>
        <time>2018-08-25T10:21:11Z</time>
      </trkpt>
      <trkpt lat="45.98113" lon="6.44882">
        <ele>1562</ele>
        <time>2018-08-25T10:21:11Z</time>
      </trkpt>
      <trkpt lat="45.98075" lon="6.44771">
        <ele>1561</ele>
        <time>2018-08-25T10:21:11Z</time>
      </trkpt>
      <trkpt lat="45.98058" lon="6.44716">
        <ele>1563</ele>
        <time>2018-08-25T10:21:11Z</time>
      </trkpt>
      <trkpt lat="45.98056" lon="6.44683">
        <ele>1565</ele>
        <time>2018-08-25T10:21:11Z</time>
      </trkpt>
      <trkpt lat="45.98064" lon="6.44648">
        <ele>1569</ele>
        <time>2018-08-25T10:21:11Z</time>
      </trkpt>
      <trkpt lat="45.98079" lon="6.44621">
        <ele>1570</ele>
        <time>2018-08-25T10:21:11Z</time>
      </trkpt>
      <trkpt lat="45.98073" lon="6.44587">
        <ele>1573</ele>
        <time>2018-08-25T10:21:11Z</time>
      </trkpt>
      <trkpt lat="45.9805" lon="6.44567">
        <ele>1571</ele>
        <time>2018-08-25T10:21:11Z</time>
      </trkpt>
      <trkpt lat="45.98004" lon="6.44557">
        <ele>1566</ele>
        <time>2018-08-25T10:21:11Z</time>
      </trkpt>
      <trkpt lat="45.97958" lon="6.44497">
        <ele>1562</ele>
        <time>2018-08-25T10:21:11Z</time>
      </trkpt>
      <trkpt lat="45.97954" lon="6.44483">
        <ele>1563</ele>
        <time>2018-08-25T10:21:11Z</time>
      </trkpt>
      <trkpt lat="45.97996" lon="6.44494">
        <ele>1564</ele>
        <time>2018-08-25T10:21:11Z</time>
      </trkpt>
      <trkpt lat="45.98033" lon="6.44482">
        <ele>1578</ele>
        <time>2018-08-25T10:21:11Z</time>
      </trkpt>
      <trkpt lat="45.98062" lon="6.44345">
        <ele>1605</ele>
        <time>2018-08-25T10:21:11Z</time>
      </trkpt>
      <trkpt lat="45.98069" lon="6.44278">
        <ele>1624</ele>
        <time>2018-08-25T10:21:11Z</time>
      </trkpt>
      <trkpt lat="45.98046" lon="6.44209">
        <ele>1642</ele>
        <time>2018-08-25T10:21:11Z</time>
      </trkpt>
      <trkpt lat="45.97998" lon="6.44173">
        <ele>1647</ele>
        <time>2018-08-25T10:21:11Z</time>
      </trkpt>
      <trkpt lat="45.97982" lon="6.44194">
        <ele>1641</ele>
        <time>2018-08-25T10:21:11Z</time>
      </trkpt>
      <trkpt lat="45.97968" lon="6.44181">
        <ele>1642</ele>
        <time>2018-08-25T10:21:11Z</time>
      </trkpt>
      <trkpt lat="45.97944" lon="6.44161">
        <ele>1657</ele>
        <time>2018-08-25T10:21:11Z</time>
      </trkpt>
      <trkpt lat="45.97946" lon="6.44138">
        <ele>1660</ele>
        <time>2018-08-25T10:21:11Z</time>
      </trkpt>
      <trkpt lat="45.97931" lon="6.44123">
        <ele>1662</ele>
        <time>2018-08-25T10:21:11Z</time>
      </trkpt>
      <trkpt lat="45.97927" lon="6.441">
        <ele>1667</ele>
        <time>2018-08-25T10:21:11Z</time>
      </trkpt>
      <trkpt lat="45.97952" lon="6.441">
        <ele>1666</ele>
        <time>2018-08-25T10:21:11Z</time>
      </trkpt>
      <trkpt lat="45.97945" lon="6.44054">
        <ele>1686</ele>
        <time>2018-08-25T10:21:11Z</time>
      </trkpt>
      <trkpt lat="45.97956" lon="6.44034">
        <ele>1689</ele>
        <time>2018-08-25T10:21:11Z</time>
      </trkpt>
      <trkpt lat="45.97949" lon="6.44014">
        <ele>1692</ele>
        <time>2018-08-25T10:21:11Z</time>
      </trkpt>
      <trkpt lat="45.97965" lon="6.43994">
        <ele>1707</ele>
        <time>2018-08-25T10:21:11Z</time>
      </trkpt>
      <trkpt lat="45.97965" lon="6.43941">
        <ele>1714</ele>
        <time>2018-08-25T10:21:11Z</time>
      </trkpt>
      <trkpt lat="45.97937" lon="6.43899">
        <ele>1727</ele>
        <time>2018-08-25T10:21:11Z</time>
      </trkpt>
      <trkpt lat="45.97976" lon="6.43876">
        <ele>1731</ele>
        <time>2018-08-25T10:21:11Z</time>
      </trkpt>
      <trkpt lat="45.9796" lon="6.43855">
        <ele>1733</ele>
        <time>2018-08-25T10:21:11Z</time>
      </trkpt>
      <trkpt lat="45.97982" lon="6.43826">
        <ele>1747</ele>
        <time>2018-08-25T10:21:11Z</time>
      </trkpt>
      <trkpt lat="45.97971" lon="6.43784">
        <ele>1751</ele>
        <time>2018-08-25T10:21:11Z</time>
      </trkpt>
      <trkpt lat="45.97956" lon="6.4376">
        <ele>1751</ele>
        <time>2018-08-25T10:21:11Z</time>
      </trkpt>
      <trkpt lat="45.97948" lon="6.43713">
        <ele>1764</ele>
        <time>2018-08-25T10:21:11Z</time>
      </trkpt>
      <trkpt lat="45.97945" lon="6.43626">
        <ele>1784</ele>
        <time>2018-08-25T10:21:11Z</time>
      </trkpt>
      <trkpt lat="45.97947" lon="6.43603">
        <ele>1787</ele>
        <time>2018-08-25T10:21:11Z</time>
      </trkpt>
      <trkpt lat="45.97975" lon="6.43619">
        <ele>1787</ele>
        <time>2018-08-25T10:21:11Z</time>
      </trkpt>
      <trkpt lat="45.9798" lon="6.4361">
        <ele>1789</ele>
        <time>2018-08-25T10:21:11Z</time>
      </trkpt>
      <trkpt lat="45.97958" lon="6.43574">
        <ele>1806</ele>
        <time>2018-08-25T10:21:11Z</time>
      </trkpt>
      <trkpt lat="45.97924" lon="6.43554">
        <ele>1806</ele>
        <time>2018-08-25T10:21:11Z</time>
      </trkpt>
      <trkpt lat="45.97937" lon="6.43529">
        <ele>1812</ele>
        <time>2018-08-25T10:21:11Z</time>
      </trkpt>
      <trkpt lat="45.97928" lon="6.43508">
        <ele>1814</ele>
        <time>2018-08-25T10:21:11Z</time>
      </trkpt>
      <trkpt lat="45.97888" lon="6.43365">
        <ele>1841</ele>
        <time>2018-08-25T10:21:11Z</time>
      </trkpt>
      <trkpt lat="45.97862" lon="6.43254">
        <ele>1858</ele>
        <time>2018-08-25T10:21:11Z</time>
      </trkpt>
      <trkpt lat="45.97852" lon="6.43211">
        <ele>1876</ele>
        <time>2018-08-25T10:21:11Z</time>
      </trkpt>
      <trkpt lat="45.97825" lon="6.43184">
        <ele>1872</ele>
        <time>2018-08-25T10:21:11Z</time>
      </trkpt>
      <trkpt lat="45.97835" lon="6.43166">
        <ele>1881</ele>
        <time>2018-08-25T10:21:11Z</time>
      </trkpt>
      <trkpt lat="45.9781" lon="6.43142">
        <ele>1873</ele>
        <time>2018-08-25T10:21:11Z</time>
      </trkpt>
      <trkpt lat="45.97847" lon="6.43115">
        <ele>1880</ele>
        <time>2018-08-25T10:21:11Z</time>
      </trkpt>
      <trkpt lat="45.97895" lon="6.43109">
        <ele>1885</ele>
        <time>2018-08-25T10:21:11Z</time>
      </trkpt>
      <trkpt lat="45.9798" lon="6.43148">
        <ele>1911</ele>
        <time>2018-08-25T10:21:11Z</time>
      </trkpt>
      <trkpt lat="45.98042" lon="6.43195">
        <ele>1941</ele>
        <time>2018-08-25T10:21:11Z</time>
      </trkpt>
      <trkpt lat="45.9814" lon="6.43315">
        <ele>1977</ele>
        <time>2018-08-25T10:21:11Z</time>
      </trkpt>
      <trkpt lat="45.98212" lon="6.43446">
        <ele>1931</ele>
        <time>2018-08-25T10:21:11Z</time>
      </trkpt>
      <trkpt lat="45.98252" lon="6.43571">
        <ele>1919</ele>
        <time>2018-08-25T10:21:11Z</time>
      </trkpt>
      <trkpt lat="45.98244" lon="6.43612">
        <ele>1904</ele>
        <time>2018-08-25T10:21:11Z</time>
      </trkpt>
      <trkpt lat="45.9829" lon="6.43722">
        <ele>1896</ele>
        <time>2018-08-25T10:21:11Z</time>
      </trkpt>
      <trkpt lat="45.98367" lon="6.43874">
        <ele>1885</ele>
        <time>2018-08-25T10:21:11Z</time>
      </trkpt>
      <trkpt lat="45.98398" lon="6.43855">
        <ele>1882</ele>
        <time>2018-08-25T10:21:11Z</time>
      </trkpt>
      <trkpt lat="45.9848" lon="6.43855">
        <ele>1863</ele>
        <time>2018-08-25T10:21:11Z</time>
      </trkpt>
      <trkpt lat="45.98519" lon="6.43905">
        <ele>1849</ele>
        <time>2018-08-25T10:21:11Z</time>
      </trkpt>
      <trkpt lat="45.9858" lon="6.43943">
        <ele>1836</ele>
        <time>2018-08-25T10:21:11Z</time>
      </trkpt>
      <trkpt lat="45.98647" lon="6.4415">
        <ele>1813</ele>
        <time>2018-08-25T10:21:11Z</time>
      </trkpt>
      <trkpt lat="45.98726" lon="6.44171">
        <ele>1792</ele>
        <time>2018-08-25T10:21:11Z</time>
      </trkpt>
      <trkpt lat="45.98753" lon="6.4421">
        <ele>1788</ele>
        <time>2018-08-25T10:21:11Z</time>
      </trkpt>
      <trkpt lat="45.98852" lon="6.44171">
        <ele>1771</ele>
        <time>2018-08-25T10:21:11Z</time>
      </trkpt>
      <trkpt lat="45.98907" lon="6.4407">
        <ele>1744</ele>
        <time>2018-08-25T10:21:11Z</time>
      </trkpt>
      <trkpt lat="45.98954" lon="6.43974">
        <ele>1763</ele>
        <time>2018-08-25T10:21:11Z</time>
      </trkpt>
      <trkpt lat="45.9897" lon="6.43917">
        <ele>1767</ele>
        <time>2018-08-25T10:21:11Z</time>
      </trkpt>
      <trkpt lat="45.99011" lon="6.44007">
        <ele>1768</ele>
        <time>2018-08-25T10:21:11Z</time>
      </trkpt>
      <trkpt lat="45.99098" lon="6.4406">
        <ele>1770</ele>
        <time>2018-08-25T10:21:11Z</time>
      </trkpt>
      <trkpt lat="45.99157" lon="6.44134">
        <ele>1769</ele>
        <time>2018-08-25T10:21:11Z</time>
      </trkpt>
      <trkpt lat="45.99201" lon="6.4414">
        <ele>1773</ele>
        <time>2018-08-25T10:21:11Z</time>
      </trkpt>
      <trkpt lat="45.99229" lon="6.4412">
        <ele>1773</ele>
        <time>2018-08-25T10:21:11Z</time>
      </trkpt>
      <trkpt lat="45.99237" lon="6.4416">
        <ele>1779</ele>
        <time>2018-08-25T10:21:11Z</time>
      </trkpt>
      <trkpt lat="45.99298" lon="6.44173">
        <ele>1792</ele>
        <time>2018-08-25T10:21:11Z</time>
      </trkpt>
      <trkpt lat="45.99355" lon="6.44232">
        <ele>1803</ele>
        <time>2018-08-25T10:21:11Z</time>
      </trkpt>
      <trkpt lat="45.99425" lon="6.44263">
        <ele>1816</ele>
        <time>2018-08-25T10:21:11Z</time>
      </trkpt>
      <trkpt lat="45.99529" lon="6.44363">
        <ele>1858</ele>
        <time>2018-08-25T10:21:11Z</time>
      </trkpt>
      <trkpt lat="45.99641" lon="6.44412">
        <ele>1873</ele>
        <time>2018-08-25T10:21:11Z</time>
      </trkpt>
      <trkpt lat="45.99738" lon="6.44431">
        <ele>1893</ele>
        <time>2018-08-25T10:21:11Z</time>
      </trkpt>
      <trkpt lat="45.99785" lon="6.4448">
        <ele>1915</ele>
        <time>2018-08-25T10:21:11Z</time>
      </trkpt>
      <trkpt lat="45.99803" lon="6.4449">
        <ele>1920</ele>
        <time>2018-08-25T10:21:11Z</time>
      </trkpt>
      <trkpt lat="45.99799" lon="6.44533">
        <ele>1946</ele>
        <time>2018-08-25T10:21:11Z</time>
      </trkpt>
      <trkpt lat="45.99864" lon="6.44513">
        <ele>1927</ele>
        <time>2018-08-25T10:21:11Z</time>
      </trkpt>
      <trkpt lat="45.99878" lon="6.4459">
        <ele>1931</ele>
        <time>2018-08-25T10:21:11Z</time>
      </trkpt>
      <trkpt lat="45.9989" lon="6.44629">
        <ele>1929</ele>
        <time>2018-08-25T10:21:11Z</time>
      </trkpt>
      <trkpt lat="45.99895" lon="6.44717">
        <ele>1942</ele>
        <time>2018-08-25T10:21:11Z</time>
      </trkpt>
      <trkpt lat="45.9992" lon="6.44852">
        <ele>1930</ele>
        <time>2018-08-25T10:21:11Z</time>
      </trkpt>
      <trkpt lat="45.99929" lon="6.44993">
        <ele>1950</ele>
        <time>2018-08-25T10:21:11Z</time>
      </trkpt>
      <trkpt lat="45.99948" lon="6.45131">
        <ele>1980</ele>
        <time>2018-08-25T10:21:11Z</time>
      </trkpt>
      <trkpt lat="45.99951" lon="6.45237">
        <ele>2011</ele>
        <time>2018-08-25T10:21:11Z</time>
      </trkpt>
      <trkpt lat="45.99974" lon="6.45296">
        <ele>2039</ele>
        <time>2018-08-25T10:21:11Z</time>
      </trkpt>
      <trkpt lat="45.99966" lon="6.45352">
        <ele>2074</ele>
        <time>2018-08-25T10:21:11Z</time>
      </trkpt>
      <trkpt lat="45.99919" lon="6.45376">
        <ele>2085</ele>
        <time>2018-08-25T10:21:11Z</time>
      </trkpt>
      <trkpt lat="45.99916" lon="6.45432">
        <ele>2121</ele>
        <time>2018-08-25T10:21:11Z</time>
      </trkpt>
      <trkpt lat="45.99943" lon="6.45477">
        <ele>2129</ele>
        <time>2018-08-25T10:21:11Z</time>
      </trkpt>
      <trkpt lat="46.00007" lon="6.45499">
        <ele>2142</ele>
        <time>2018-08-25T10:21:11Z</time>
      </trkpt>
      <trkpt lat="45.99967" lon="6.45528">
        <ele>2161</ele>
        <time>2018-08-25T10:21:11Z</time>
      </trkpt>
      <trkpt lat="45.99857" lon="6.45673">
        <ele>2250</ele>
        <time>2018-08-25T10:21:11Z</time>
      </trkpt>
      <trkpt lat="45.99809" lon="6.45706">
        <ele>2248</ele>
        <time>2018-08-25T10:21:11Z</time>
      </trkpt>
      <trkpt lat="45.99791" lon="6.4562">
        <ele>2222</ele>
        <time>2018-08-25T10:21:11Z</time>
      </trkpt>
      <trkpt lat="45.9975" lon="6.45495">
        <ele>2157</ele>
        <time>2018-08-25T10:21:11Z</time>
      </trkpt>
      <trkpt lat="45.9972" lon="6.45444">
        <ele>2165</ele>
        <time>2018-08-25T10:21:11Z</time>
      </trkpt>
      <trkpt lat="45.99674" lon="6.45333">
        <ele>2310</ele>
        <time>2018-08-25T10:21:11Z</time>
      </trkpt>
      <trkpt lat="45.99639" lon="6.45249">
        <ele>2331</ele>
        <time>2018-08-25T10:21:11Z</time>
      </trkpt>
      <trkpt lat="45.99635" lon="6.4519">
        <ele>2322</ele>
        <time>2018-08-25T10:21:11Z</time>
      </trkpt>
      <trkpt lat="45.99618" lon="6.45194">
        <ele>2325</ele>
        <time>2018-08-25T10:21:11Z</time>
      </trkpt>
      <trkpt lat="45.99591" lon="6.45255">
        <ele>2344</ele>
        <time>2018-08-25T10:21:11Z</time>
      </trkpt>
      <trkpt lat="45.99597" lon="6.45352">
        <ele>2329</ele>
        <time>2018-08-25T10:21:11Z</time>
      </trkpt>
      <trkpt lat="45.99614" lon="6.4538">
        <ele>2316</ele>
        <time>2018-08-25T10:21:11Z</time>
      </trkpt>
    </trkseg>
  </trk>
</gpx>